• In Latvia
  • List of Countries
  • For 7 days
  • Water Temperature
  • Satellite Maps
  • Weather Map
  • Weather Widgets
  • user-avatar
    Login

    Hourly Weather Jaunpils

    Today, 22 August, Wednesday

    Time Temperature Precipitation Wind Pressure Humidity
    00:00 +10°C° 0 mm 2 mps 758 mmHg 88%
    01:00 +10°C° 0 mm 2 mps 758 mmHg 89%
    02:00 +10°C° 0 mm 2 mps 758 mmHg 89%
    03:00 +9°C° 0 mm 2 mps 759 mmHg 89%
    04:00 +9°C° 0 mm 2 mps 759 mmHg 89%
    05:00 +9°C° 0 mm 2 mps 759 mmHg 89%
    06:00 +12°C° 0 mm 2 mps 759 mmHg 82%
    07:00 +13°C° 0 mm 2 mps 760 mmHg 76%
    08:00 +15°C° 0 mm 2 mps 760 mmHg 70%
    09:00 +16°C° 0 mm 2 mps 760 mmHg 63%
    10:00 +18°C° 0 mm 2 mps 760 mmHg 57%
    11:00 +19°C° 0 mm 2 mps 760 mmHg 51%
    12:00 +20°C° 0 mm 2 mps 760 mmHg 50%
    13:00 +20°C° 0 mm 2 mps 760 mmHg 49%
    14:00 +21°C° 0 mm 2 mps 760 mmHg 49%
    15:00 +20°C° 0 mm 2 mps 759 mmHg 51%
    16:00 +20°C° 0 mm 2 mps 759 mmHg 53%
    17:00 +20°C° 0 mm 3 mps 759 mmHg 55%
    18:00 +18°C° 0 mm 2 mps 759 mmHg 62%
    19:00 +17°C° 0 mm 2 mps 759 mmHg 69%
    20:00 +15°C° 0 mm 2 mps 758 mmHg 76%
    21:00 +14°C° 0 mm 2 mps 758 mmHg 78%
    22:00 +14°C° 0 mm 2 mps 758 mmHg 80%
    23:00 +12°C° 0 mm 3 mps 758 mmHg 82%

    Tomorrow, 23 August, Thursday

    Time Temperature Precipitation Wind Pressure Humidity
    00:00 +12°C° 0 mm 3 mps 758 mmHg 80%
    01:00 +12°C° 0 mm 3 mps 758 mmHg 79%
    02:00 +12°C° 0 mm 3 mps 757 mmHg 77%
    03:00 +12°C° 0 mm 3 mps 757 mmHg 77%
    04:00 +11°C° 0 mm 3 mps 757 mmHg 76%
    05:00 +11°C° 0 mm 3 mps 756 mmHg 75%
    06:00 +13°C° 0 mm 4 mps 756 mmHg 72%
    07:00 +14°C° 0 mm 4 mps 756 mmHg 69%
    08:00 +15°C° 0 mm 4 mps 756 mmHg 65%
    09:00 +18°C° 0 mm 4 mps 756 mmHg 61%
    10:00 +20°C° 0 mm 4 mps 756 mmHg 57%
    11:00 +22°C° 0 mm 4 mps 756 mmHg 53%
    12:00 +23°C° 0 mm 4 mps 756 mmHg 52%
    13:00 +25°C° 0 mm 4 mps 755 mmHg 50%
    14:00 +26°C° 0 mm 4 mps 755 mmHg 48%
    15:00 +25°C° 0 mm 4 mps 755 mmHg 51%
    16:00 +25°C° 0 mm 4 mps 754 mmHg 53%
    17:00 +25°C° 0 mm 4 mps 754 mmHg 56%
    18:00 +22°C° 0 mm 3 mps 754 mmHg 64%
    19:00 +21°C° 0 mm 3 mps 753 mmHg 72%
    20:00 +19°C° 0 mm 3 mps 753 mmHg 79%
    21:00 +18°C° 0 mm 3 mps 753 mmHg 80%
    22:00 +18°C° 0 mm 3 mps 753 mmHg 81%
    23:00 +17°C° 0 mm 3 mps 753 mmHg 82%

    Day after tomorrow, 24 August, Friday

    Time Temperature Precipitation Wind Pressure Humidity
    00:00 +17°C° 0 mm 3 mps 752 mmHg 82%
    01:00 +17°C° 0 mm 4 mps 752 mmHg 81%
    02:00 +17°C° 0 mm 4 mps 752 mmHg 80%
    03:00 +17°C° 0 mm 4 mps 751 mmHg 82%
    04:00 +17°C° 0 mm 4 mps 751 mmHg 84%
    05:00 +17°C° 0 mm 4 mps 751 mmHg 86%
    06:00 +18°C° 0.1 mm 4 mps 751 mmHg 85%
    07:00 +19°C° 0.1 mm 4 mps 750 mmHg 84%
    08:00 +20°C° 0.1 mm 5 mps 750 mmHg 83%
    09:00 +21°C° 0 mm 5 mps 750 mmHg 77%
    10:00 +23°C° 0 mm 5 mps 750 mmHg 72%
    11:00 +26°C° 0 mm 5 mps 750 mmHg 66%
    12:00 +26°C° 0.8 mm 5 mps 750 mmHg 67%
    13:00 +27°C° 0.8 mm 5 mps 749 mmHg 67%
    14:00 +27°C° 0.8 mm 5 mps 749 mmHg 68%
    15:00 +27°C° 1 mm 5 mps 749 mmHg 70%
    16:00 +26°C° 1 mm 5 mps 748 mmHg 73%
    17:00 +26°C° 1 mm 4 mps 748 mmHg 75%
    18:00 +25°C° 0.7 mm 4 mps 747 mmHg 79%
    19:00 +23°C° 0.7 mm 4 mps 747 mmHg 82%
    20:00 +22°C° 0.7 mm 4 mps 746 mmHg 86%
    21:00 +21°C° 1.6 mm 5 mps 746 mmHg 88%
    22:00 +21°C° 1.6 mm 5 mps 746 mmHg 90%
    23:00 +20°C° 1.6 mm 5 mps 746 mmHg 92%

    25 August, Saturday

    Time Temperature Precipitation Wind Pressure Humidity
    00:00 +20°C° 0.7 mm 5 mps 745 mmHg 92%
    01:00 +20°C° 0.7 mm 5 mps 745 mmHg 93%
    02:00 +20°C° 0.7 mm 4 mps 745 mmHg 94%
    03:00 +19°C° 0.1 mm 4 mps 745 mmHg 95%
    04:00 +19°C° 0.1 mm 4 mps 745 mmHg 95%
    05:00 +19°C° 0.1 mm 3 mps 745 mmHg 96%
    06:00 +19°C° 0.1 mm 3 mps 746 mmHg 95%
    07:00 +19°C° 0.1 mm 3 mps 746 mmHg 94%
    08:00 +19°C° 0.1 mm 3 mps 746 mmHg 92%
    09:00 +19°C° 0.7 mm 2 mps 747 mmHg 91%
    10:00 +19°C° 0.7 mm 2 mps 747 mmHg 90%
    11:00 +19°C° 0.7 mm 2 mps 747 mmHg 88%
    12:00 +19°C° 0.2 mm 2 mps 748 mmHg 85%
    13:00 +19°C° 0.2 mm 2 mps 748 mmHg 82%
    14:00 +19°C° 0.2 mm 2 mps 748 mmHg 79%
    15:00 +19°C° 0 mm 2 mps 748 mmHg 78%
    16:00 +19°C° 0 mm 2 mps 749 mmHg 78%
    17:00 +19°C° 0 mm 2 mps 749 mmHg 77%
    18:00 +18°C° 0.1 mm 2 mps 749 mmHg 81%
    19:00 +17°C° 0.1 mm 2 mps 749 mmHg 85%
    20:00 +16°C° 0.1 mm 2 mps 750 mmHg 89%
    21:00 +16°C° 0 mm 2 mps 750 mmHg 91%
    22:00 +15°C° 0 mm 2 mps 750 mmHg 92%
    23:00 +14°C° 0 mm 2 mps 750 mmHg 94%

    26 August, Sunday

    Time Temperature Precipitation Wind Pressure Humidity
    00:00 +14°C° 0.1 mm 2 mps 750 mmHg 93%
    01:00 +14°C° 0.1 mm 2 mps 750 mmHg 92%
    02:00 +14°C° 0.1 mm 2 mps 750 mmHg 91%
    03:00 +14°C° 0.3 mm 2 mps 750 mmHg 91%
    04:00 +14°C° 0.3 mm 2 mps 750 mmHg 92%
    05:00 +13°C° 0.3 mm 2 mps 751 mmHg 93%
    06:00 +14°C° 0.1 mm 2 mps 751 mmHg 91%
    07:00 +15°C° 0.1 mm 2 mps 751 mmHg 89%
    08:00 +14°C° 0.1 mm 3 mps 751 mmHg 87%
    09:00 +16°C° 0 mm 3 mps 751 mmHg 79%
    10:00 +18°C° 0 mm 3 mps 751 mmHg 72%
    11:00 +19°C° 0 mm 3 mps 752 mmHg 64%
    12:00 +19°C° 0.1 mm 3 mps 752 mmHg 62%
    13:00 +20°C° 0.1 mm 3 mps 752 mmHg 60%
    14:00 +20°C° 0.1 mm 2 mps 752 mmHg 58%
    15:00 +20°C° 0.2 mm 2 mps 752 mmHg 62%
    16:00 +19°C° 0.2 mm 2 mps 752 mmHg 67%
    17:00 +20°C° 0.2 mm 1 mps 752 mmHg 71%
    18:00 +18°C° 0.1 mm 1 mps 753 mmHg 74%
    19:00 +16°C° 0.1 mm 1 mps 753 mmHg 78%
    20:00 +15°C° 0.1 mm 1 mps 753 mmHg 82%
    21:00 +15°C° 0.1 mm 1 mps 753 mmHg 83%
    22:00 +14°C° 0.1 mm 1 mps 753 mmHg 85%
    23:00 +14°C° 0.1 mm 1 mps 753 mmHg 86%

    27 August, Monday

    Time Temperature Precipitation Wind Pressure Humidity
    00:00 +14°C° 0.1 mm 1 mps 753 mmHg 86%
    01:00 +13°C° 0.1 mm 1 mps 753 mmHg 86%
    02:00 +13°C° 0.1 mm 1 mps 753 mmHg 86%
    03:00 +13°C° 0 mm 1 mps 753 mmHg 87%
    04:00 +13°C° 0 mm 1 mps 754 mmHg 88%
    05:00 +12°C° 0 mm 1 mps 754 mmHg 90%
    06:00 +13°C° 0 mm 2 mps 754 mmHg 86%
    07:00 +14°C° 0 mm 2 mps 754 mmHg 82%
    08:00 +15°C° 0 mm 2 mps 755 mmHg 78%
    09:00 +17°C° 0 mm 2 mps 755 mmHg 69%
    10:00 +18°C° 0 mm 3 mps 755 mmHg 60%
    11:00 +20°C° 0 mm 3 mps 756 mmHg 51%
    12:00 +20°C° 0.1 mm 3 mps 756 mmHg 50%
    13:00 +20°C° 0.1 mm 3 mps 756 mmHg 49%
    14:00 +20°C° 0.1 mm 3 mps 757 mmHg 48%
    15:00 +20°C° 0 mm 3 mps 757 mmHg 50%
    16:00 +20°C° 0 mm 3 mps 757 mmHg 51%
    17:00 +19°C° 0 mm 3 mps 757 mmHg 52%
    18:00 +17°C° 0 mm 2 mps 758 mmHg 60%
    19:00 +15°C° 0 mm 2 mps 758 mmHg 67%
    20:00 +13°C° 0 mm 2 mps 758 mmHg 75%
    21:00 +13°C° 0 mm 2 mps 759 mmHg 78%
    22:00 +12°C° 0 mm 1 mps 759 mmHg 80%
    23:00 +11°C° 0 mm 1 mps 759 mmHg 83%
    Show more